GLO1128 SBGR-SBCA

Flight info

Callsign GLO1128
Flight time 1h 14m
Altitude 36000
Route ASETA UZ152 ARNIL DCT
Aircraft B738/M-SDFGIKLORWX/LB1

Departure

Time 2026-05-06 00:54
Airport São Paulo/Guarulhos–Governor André Franco Montoro International Airport (SBGR)

Arrival

Time 2026-05-06 02:08
Airport Coronel Adalberto Mendes da Silva Airport (SBCA)
Time Latitude Longitude Altitude Speed Heading
2026-05-06 00:34 -23.42807 -46.48244 2447 ft 0 kts 264°
2026-05-06 00:46 -23.42807 -46.48243 2447 ft 1 kts 264°
2026-05-06 00:47 -23.42806 -46.48228 2447 ft 2 kts 264°
2026-05-06 00:47 -23.42804 -46.48211 2447 ft 2 kts 264°
2026-05-06 00:47 -23.42803 -46.48197 2447 ft 2 kts 261°
2026-05-06 00:47 -23.42796 -46.48183 2448 ft 2 kts 215°
2026-05-06 00:48 -23.42782 -46.48178 2448 ft 1 kts 179°
2026-05-06 00:48 -23.42773 -46.48179 2448 ft 0 kts 169°
2026-05-06 00:48 -23.42768 -46.48180 2448 ft 0 kts 174°
2026-05-06 00:48 -23.42769 -46.48180 2448 ft 0 kts 174°
2026-05-06 00:51 -23.42777 -46.48179 2448 ft 3 kts 174°
2026-05-06 00:51 -23.42815 -46.48175 2447 ft 7 kts 175°
2026-05-06 00:52 -23.42882 -46.48168 2447 ft 11 kts 168°
2026-05-06 00:52 -23.42954 -46.48141 2447 ft 10 kts 171°
2026-05-06 00:52 -23.43034 -46.48133 2447 ft 12 kts 175°
2026-05-06 00:52 -23.43121 -46.48121 2447 ft 13 kts 166°
2026-05-06 00:53 -23.43216 -46.48091 2448 ft 14 kts 163°
2026-05-06 00:53 -23.43310 -46.48061 2451 ft 13 kts 163°
2026-05-06 00:53 -23.43341 -46.48016 2453 ft 5 kts 73°
2026-05-06 00:53 -23.43323 -46.47948 2452 ft 21 kts 74°
2026-05-06 00:54 -23.43214 -46.47542 2452 ft 88 kts 73°
2026-05-06 00:54 -23.42985 -46.46696 2448 ft 144 kts 73°
2026-05-06 00:54 -23.42662 -46.45489 2483 ft 184 kts 73°
2026-05-06 00:54 -23.42293 -46.44150 3064 ft 186 kts 72°
2026-05-06 00:55 -23.41899 -46.42813 3648 ft 190 kts 72°
2026-05-06 00:55 -23.41471 -46.41404 4107 ft 199 kts 72°
2026-05-06 00:55 -23.41030 -46.39950 4533 ft 210 kts 72°
2026-05-06 00:55 -23.40571 -46.38390 4885 ft 226 kts 73°
2026-05-06 00:56 -23.40153 -46.36693 5248 ft 235 kts 82°
2026-05-06 00:56 -23.40239 -46.34931 5610 ft 236 kts 105°
2026-05-06 00:56 -23.40807 -46.33251 5989 ft 246 kts 111°
2026-05-06 00:56 -23.41475 -46.31465 6373 ft 261 kts 110°
2026-05-06 00:57 -23.42144 -46.29583 6853 ft 270 kts 111°
2026-05-06 00:57 -23.43028 -46.27760 7323 ft 275 kts 126°
2026-05-06 00:57 -23.44447 -46.26367 7803 ft 279 kts 149°
2026-05-06 00:57 -23.46280 -46.25586 8289 ft 284 kts 166°
2026-05-06 00:58 -23.48240 -46.25332 8761 ft 287 kts 179°
2026-05-06 00:58 -23.50223 -46.25564 9241 ft 289 kts 188°
2026-05-06 00:58 -23.52194 -46.26103 9717 ft 293 kts 201°
2026-05-06 00:58 -23.53949 -46.27216 10237 ft 295 kts 218°
2026-05-06 00:59 -23.55303 -46.28895 10829 ft 301 kts 240°
2026-05-06 00:59 -23.55946 -46.31062 11426 ft 306 kts 264°
2026-05-06 00:59 -23.55852 -46.33361 12025 ft 308 kts 277°
2026-05-06 00:59 -23.55493 -46.35705 12576 ft 317 kts 279°
2026-05-06 01:00 -23.55119 -46.38132 12958 ft 332 kts 278°
2026-05-06 01:00 -23.54746 -46.40659 13338 ft 347 kts 278°
2026-05-06 01:00 -23.54357 -46.43310 13772 ft 359 kts 278°
2026-05-06 01:00 -23.53966 -46.45961 14428 ft 363 kts 278°
2026-05-06 01:01 -23.53560 -46.48686 15108 ft 367 kts 278°
2026-05-06 01:01 -23.53148 -46.51432 15870 ft 368 kts 278°
2026-05-06 01:01 -23.52738 -46.54159 16595 ft 370 kts 278°
2026-05-06 01:01 -23.52320 -46.56936 17232 ft 373 kts 278°
2026-05-06 01:02 -23.51900 -46.59728 17875 ft 377 kts 278°
2026-05-06 01:02 -23.51476 -46.62541 18555 ft 379 kts 277°
2026-05-06 01:02 -23.51045 -46.65392 19218 ft 382 kts 278°
2026-05-06 01:02 -23.50612 -46.68252 19865 ft 385 kts 278°
2026-05-06 01:03 -23.50177 -46.71127 20497 ft 388 kts 278°
2026-05-06 01:03 -23.49739 -46.74012 21132 ft 390 kts 277°
2026-05-06 01:03 -23.49295 -46.76935 21756 ft 393 kts 278°
2026-05-06 01:03 -23.48848 -46.79877 22322 ft 396 kts 278°
2026-05-06 01:04 -23.48397 -46.82840 22909 ft 399 kts 277°
2026-05-06 01:04 -23.47944 -46.85807 23548 ft 400 kts 277°
2026-05-06 01:04 -23.47486 -46.88808 24078 ft 403 kts 277°
2026-05-06 01:04 -23.47028 -46.91806 24598 ft 407 kts 277°
2026-05-06 01:05 -23.46561 -46.94850 25120 ft 409 kts 276°
2026-05-06 01:05 -23.46087 -46.97929 25611 ft 413 kts 276°
2026-05-06 01:05 -23.45615 -47.00990 26140 ft 415 kts 276°
2026-05-06 01:05 -23.45138 -47.04087 26656 ft 417 kts 276°
2026-05-06 01:06 -23.44661 -47.07178 27176 ft 418 kts 276°
2026-05-06 01:06 -23.44177 -47.10319 27582 ft 422 kts 275°
2026-05-06 01:06 -23.43691 -47.13479 28036 ft 425 kts 275°
2026-05-06 01:06 -23.43200 -47.16662 28530 ft 426 kts 275°
2026-05-06 01:07 -23.42715 -47.19809 28948 ft 429 kts 275°
2026-05-06 01:07 -23.42220 -47.23019 29414 ft 431 kts 275°
2026-05-06 01:07 -23.41723 -47.26231 29839 ft 433 kts 275°
2026-05-06 01:07 -23.41221 -47.29474 30236 ft 435 kts 275°
2026-05-06 01:08 -23.40716 -47.32724 30671 ft 437 kts 275°
2026-05-06 01:08 -23.40208 -47.35983 31223 ft 435 kts 275°
2026-05-06 01:08 -23.39709 -47.39166 31974 ft 428 kts 275°
2026-05-06 01:08 -23.39209 -47.42338 32622 ft 423 kts 275°
2026-05-06 01:09 -23.38716 -47.45482 33136 ft 421 kts 275°
2026-05-06 01:09 -23.38225 -47.48611 33584 ft 420 kts 275°
2026-05-06 01:09 -23.37733 -47.51750 34070 ft 418 kts 274°
2026-05-06 01:09 -23.37246 -47.54841 34580 ft 415 kts 274°
2026-05-06 01:10 -23.36761 -47.57921 35048 ft 413 kts 273°
2026-05-06 01:10 -23.36277 -47.60990 35522 ft 409 kts 273°
2026-05-06 01:10 -23.35800 -47.64004 36027 ft 405 kts 272°
2026-05-06 01:10 -23.35325 -47.67010 36224 ft 407 kts 272°
2026-05-06 01:11 -23.34846 -47.70067 36218 ft 408 kts 272°
2026-05-06 01:11 -23.33899 -47.76059 36219 ft 404 kts 272°
2026-05-06 01:12 -23.32942 -47.82118 36218 ft 404 kts 272°
2026-05-06 01:12 -23.31994 -47.88102 36219 ft 404 kts 272°
2026-05-06 01:13 -23.31030 -47.94136 36217 ft 402 kts 272°
2026-05-06 01:13 -23.30070 -48.00155 36220 ft 406 kts 272°
2026-05-06 01:14 -23.28938 -48.09184 36218 ft 395 kts 264°
2026-05-06 01:14 -23.29304 -48.15035 36213 ft 389 kts 256°
2026-05-06 01:15 -23.30140 -48.20845 36221 ft 388 kts 254°
2026-05-06 01:15 -23.31039 -48.26645 36217 ft 388 kts 255°
2026-05-06 01:16 -23.31911 -48.32402 36216 ft 388 kts 255°
2026-05-06 01:16 -23.32786 -48.38207 36223 ft 387 kts 254°
2026-05-06 01:17 -23.34120 -48.43827 36217 ft 382 kts 246°
2026-05-06 01:17 -23.36036 -48.49201 36215 ft 380 kts 243°
2026-05-06 01:18 -23.38048 -48.54496 36217 ft 380 kts 243°
2026-05-06 01:18 -23.40057 -48.59822 36220 ft 380 kts 243°
2026-05-06 01:19 -23.42045 -48.65152 36220 ft 379 kts 244°
2026-05-06 01:19 -23.44022 -48.70488 36220 ft 380 kts 244°
2026-05-06 01:20 -23.45988 -48.75810 36221 ft 381 kts 244°
2026-05-06 01:20 -23.47958 -48.81161 36219 ft 380 kts 244°
2026-05-06 01:21 -23.49911 -48.86470 36214 ft 378 kts 244°
2026-05-06 01:21 -23.51878 -48.91821 36214 ft 381 kts 244°
2026-05-06 01:22 -23.53849 -48.97188 36220 ft 380 kts 244°
2026-05-06 01:22 -23.55799 -49.02507 36219 ft 380 kts 244°
2026-05-06 01:23 -23.57756 -49.07847 36218 ft 380 kts 244°
2026-05-06 01:23 -23.59709 -49.13182 36218 ft 379 kts 244°
2026-05-06 01:24 -23.61667 -49.18547 36215 ft 379 kts 244°
2026-05-06 01:24 -23.63612 -49.23882 36217 ft 380 kts 244°
2026-05-06 01:25 -23.65563 -49.29240 36214 ft 379 kts 244°
2026-05-06 01:25 -23.67508 -49.34588 36221 ft 377 kts 244°
2026-05-06 01:26 -23.69436 -49.39892 36213 ft 378 kts 244°
2026-05-06 01:26 -23.71382 -49.45253 36217 ft 378 kts 244°
2026-05-06 01:27 -23.73308 -49.50564 36212 ft 377 kts 244°
2026-05-06 01:27 -23.75246 -49.55920 36219 ft 378 kts 244°
2026-05-06 01:28 -23.77156 -49.61215 36217 ft 377 kts 244°
2026-05-06 01:28 -23.79087 -49.66572 36217 ft 378 kts 244°
2026-05-06 01:29 -23.80996 -49.71876 36218 ft 377 kts 244°
2026-05-06 01:29 -23.82917 -49.77225 36219 ft 378 kts 245°
2026-05-06 01:30 -23.84830 -49.82549 36219 ft 377 kts 244°
2026-05-06 01:30 -23.86750 -49.87908 36217 ft 377 kts 245°
2026-05-06 01:31 -23.88649 -49.93211 36220 ft 377 kts 244°
2026-05-06 01:31 -23.90552 -49.98536 36219 ft 375 kts 244°
2026-05-06 01:32 -23.92452 -50.03859 36218 ft 376 kts 245°
2026-05-06 01:32 -23.94349 -50.09177 36227 ft 378 kts 245°
2026-05-06 01:33 -23.96257 -50.14539 36227 ft 376 kts 245°
2026-05-06 01:33 -23.98150 -50.19872 36235 ft 376 kts 245°
2026-05-06 01:34 -24.00035 -50.25184 36238 ft 376 kts 245°
2026-05-06 01:34 -24.01921 -50.30505 36243 ft 376 kts 245°
2026-05-06 01:35 -24.03805 -50.35843 36248 ft 376 kts 245°
2026-05-06 01:35 -24.05675 -50.41154 36256 ft 376 kts 244°
2026-05-06 01:36 -24.07558 -50.46502 36252 ft 376 kts 245°
2026-05-06 01:36 -24.09437 -50.51848 36255 ft 377 kts 245°
2026-05-06 01:37 -24.11307 -50.57169 36254 ft 375 kts 245°
2026-05-06 01:37 -24.13188 -50.62522 36246 ft 376 kts 245°
2026-05-06 01:38 -24.15052 -50.67837 36243 ft 375 kts 245°
2026-05-06 01:38 -24.16920 -50.73171 36237 ft 376 kts 245°
2026-05-06 01:39 -24.18789 -50.78515 36243 ft 377 kts 245°
2026-05-06 01:39 -24.20650 -50.83848 36246 ft 375 kts 246°
2026-05-06 01:40 -24.22520 -50.89207 36250 ft 376 kts 245°
2026-05-06 01:40 -24.24375 -50.94531 36260 ft 375 kts 245°
2026-05-06 01:41 -24.26224 -50.99847 36254 ft 377 kts 246°
2026-05-06 01:41 -24.28091 -51.05220 36243 ft 375 kts 245°
2026-05-06 01:42 -24.29937 -51.10547 36242 ft 374 kts 246°
2026-05-06 01:42 -24.31788 -51.15900 36235 ft 375 kts 246°
2026-05-06 01:43 -24.33620 -51.21211 36236 ft 374 kts 245°
2026-05-06 01:43 -24.35461 -51.26555 36239 ft 374 kts 245°
2026-05-06 01:44 -24.37300 -51.31896 36229 ft 375 kts 246°
2026-05-06 01:44 -24.39137 -51.37232 36226 ft 375 kts 245°
2026-05-06 01:45 -24.40986 -51.42616 36215 ft 373 kts 246°
2026-05-06 01:45 -24.42803 -51.47918 36208 ft 374 kts 245°
2026-05-06 01:46 -24.44640 -51.53281 36204 ft 374 kts 245°
2026-05-06 01:46 -24.46453 -51.58587 36211 ft 372 kts 245°
2026-05-06 01:47 -24.48278 -51.63929 36214 ft 373 kts 246°
2026-05-06 01:47 -24.50109 -51.69288 36050 ft 372 kts 246°
2026-05-06 01:48 -24.51006 -51.71925 35659 ft 366 kts 246°
2026-05-06 01:48 -24.51881 -51.74500 35135 ft 363 kts 246°
2026-05-06 01:48 -24.52776 -51.77128 34544 ft 368 kts 247°
2026-05-06 01:48 -24.53665 -51.79738 33928 ft 372 kts 246°
2026-05-06 01:49 -24.54577 -51.82412 33289 ft 375 kts 247°
2026-05-06 01:49 -24.55499 -51.85122 32661 ft 380 kts 247°
2026-05-06 01:49 -24.56427 -51.87852 32004 ft 386 kts 247°
2026-05-06 01:49 -24.57361 -51.90604 31307 ft 392 kts 248°
2026-05-06 01:50 -24.58315 -51.93422 30652 ft 395 kts 248°
2026-05-06 01:50 -24.59258 -51.96214 30220 ft 393 kts 248°
2026-05-06 01:50 -24.60203 -51.99018 29741 ft 392 kts 248°
2026-05-06 01:50 -24.61157 -52.01850 29241 ft 392 kts 249°
2026-05-06 01:51 -24.62060 -52.04530 28765 ft 392 kts 249°
2026-05-06 01:51 -24.63008 -52.07347 28257 ft 390 kts 249°
2026-05-06 01:51 -24.63940 -52.10119 27762 ft 389 kts 249°
2026-05-06 01:51 -24.64875 -52.12901 27264 ft 387 kts 249°
2026-05-06 01:52 -24.65806 -52.15671 26756 ft 386 kts 249°
2026-05-06 01:52 -24.66723 -52.18402 26252 ft 385 kts 249°
2026-05-06 01:52 -24.67649 -52.21161 25740 ft 384 kts 249°
2026-05-06 01:52 -24.68579 -52.23935 25224 ft 383 kts 249°
2026-05-06 01:53 -24.69491 -52.26653 24713 ft 382 kts 249°
2026-05-06 01:53 -24.70412 -52.29400 24200 ft 382 kts 249°
2026-05-06 01:53 -24.71324 -52.32124 23687 ft 381 kts 249°
2026-05-06 01:53 -24.72240 -52.34860 23101 ft 383 kts 249°
2026-05-06 01:54 -24.73161 -52.37613 22551 ft 382 kts 249°
2026-05-06 01:54 -24.74065 -52.40318 22033 ft 381 kts 249°
2026-05-06 01:54 -24.74979 -52.43056 21509 ft 380 kts 249°
2026-05-06 01:54 -24.75884 -52.45769 20988 ft 379 kts 249°
2026-05-06 01:55 -24.76793 -52.48497 20460 ft 375 kts 249°
2026-05-06 01:55 -24.77681 -52.51162 19955 ft 371 kts 249°
2026-05-06 01:55 -24.78568 -52.53825 19430 ft 368 kts 250°
2026-05-06 01:55 -24.79439 -52.56443 18907 ft 364 kts 250°
2026-05-06 01:56 -24.80307 -52.59056 18391 ft 361 kts 250°
2026-05-06 01:56 -24.81157 -52.61615 17882 ft 358 kts 250°
2026-05-06 01:56 -24.82010 -52.64186 17361 ft 355 kts 250°
2026-05-06 01:56 -24.82844 -52.66701 16852 ft 352 kts 250°
2026-05-06 01:57 -24.83700 -52.69253 16347 ft 351 kts 250°
2026-05-06 01:57 -24.84583 -52.71738 15846 ft 350 kts 249°
2026-05-06 01:57 -24.85498 -52.74223 15333 ft 349 kts 249°
2026-05-06 01:57 -24.86408 -52.76671 14824 ft 348 kts 249°
2026-05-06 01:58 -24.87324 -52.79139 14318 ft 348 kts 250°
2026-05-06 01:58 -24.88238 -52.81622 13817 ft 347 kts 250°
2026-05-06 01:58 -24.89130 -52.84057 13321 ft 346 kts 250°
2026-05-06 01:58 -24.90029 -52.86521 12842 ft 346 kts 250°
2026-05-06 01:59 -24.90931 -52.89001 12323 ft 346 kts 251°
2026-05-06 01:59 -24.91816 -52.91436 11822 ft 346 kts 251°
2026-05-06 01:59 -24.92716 -52.93914 11319 ft 346 kts 251°
2026-05-06 01:59 -24.93599 -52.96345 10845 ft 345 kts 251°
2026-05-06 02:00 -24.94481 -52.98773 10550 ft 336 kts 251°
2026-05-06 02:00 -24.95336 -53.01123 10441 ft 322 kts 251°
2026-05-06 02:00 -24.96149 -53.03357 10327 ft 308 kts 251°
2026-05-06 02:00 -24.96938 -53.05535 10063 ft 302 kts 251°
2026-05-06 02:01 -24.97712 -53.07681 9627 ft 303 kts 251°
2026-05-06 02:01 -24.98482 -53.09815 9221 ft 302 kts 252°
2026-05-06 02:01 -24.99260 -53.11969 8831 ft 300 kts 252°
2026-05-06 02:01 -25.00028 -53.14095 8443 ft 299 kts 252°
2026-05-06 02:02 -25.00798 -53.16226 8050 ft 298 kts 252°
2026-05-06 02:02 -25.01558 -53.18330 7663 ft 297 kts 252°
2026-05-06 02:02 -25.02323 -53.20446 7393 ft 291 kts 252°
2026-05-06 02:02 -25.03058 -53.22479 7154 ft 285 kts 252°
2026-05-06 02:03 -25.03786 -53.24493 6950 ft 277 kts 252°
2026-05-06 02:03 -25.04481 -53.26417 6826 ft 267 kts 252°
2026-05-06 02:03 -25.05199 -53.28295 6690 ft 260 kts 248°
2026-05-06 02:03 -25.06193 -53.29945 6461 ft 258 kts 232°
2026-05-06 02:04 -25.07473 -53.31340 6147 ft 259 kts 226°
2026-05-06 02:04 -25.08796 -53.32664 5811 ft 259 kts 225°
2026-05-06 02:04 -25.10085 -53.34048 5472 ft 257 kts 232°
2026-05-06 02:04 -25.10979 -53.35684 5210 ft 244 kts 259°
2026-05-06 02:05 -25.10955 -53.37455 5033 ft 224 kts 294°
2026-05-06 02:05 -25.10222 -53.38883 4867 ft 209 kts 315°
2026-05-06 02:05 -25.09245 -53.40013 4692 ft 199 kts 319°
2026-05-06 02:05 -25.08260 -53.41083 4463 ft 194 kts 319°
2026-05-06 02:06 -25.07326 -53.42110 4279 ft 188 kts 319°
2026-05-06 02:06 -25.06428 -53.43101 4141 ft 173 kts 319°
2026-05-06 02:06 -25.05605 -53.44009 3954 ft 162 kts 319°
2026-05-06 02:06 -25.04825 -53.44869 3687 ft 150 kts 320°
2026-05-06 02:07 -25.04096 -53.45663 3499 ft 148 kts 320°
2026-05-06 02:07 -25.03345 -53.46477 3310 ft 152 kts 320°
2026-05-06 02:07 -25.02605 -53.47288 3087 ft 151 kts 320°
2026-05-06 02:07 -25.01859 -53.48107 2882 ft 152 kts 318°
2026-05-06 02:08 -25.01106 -53.48933 2661 ft 150 kts 319°
2026-05-06 02:08 -25.00379 -53.49729 2484 ft 143 kts 317°
2026-05-06 02:08 -24.99872 -53.50278 2480 ft 54 kts 314°
2026-05-06 02:08 -24.99663 -53.50513 2479 ft 39 kts 314°
2026-05-06 02:09 -24.99517 -53.50671 2479 ft 17 kts 321°
2026-05-06 02:09 -24.99446 -53.50716 2479 ft 9 kts 263°
2026-05-06 02:09 -24.99491 -53.50703 2479 ft 8 kts 134°
2026-05-06 02:09 -24.99538 -53.50650 2479 ft 10 kts 134°
2026-05-06 02:10 -24.99593 -53.50588 2479 ft 12 kts 135°
2026-05-06 02:10 -24.99657 -53.50519 2479 ft 13 kts 135°
2026-05-06 02:10 -24.99728 -53.50441 2479 ft 15 kts 135°
2026-05-06 02:10 -24.99809 -53.50352 2479 ft 17 kts 134°
2026-05-06 02:11 -24.99897 -53.50256 2480 ft 18 kts 135°
2026-05-06 02:11 -24.99963 -53.50185 2480 ft 9 kts 147°
2026-05-06 02:11 -25.00022 -53.50208 2480 ft 9 kts 226°
2026-05-06 02:11 -25.00069 -53.50262 2479 ft 9 kts 225°
2026-05-06 02:12 -25.00116 -53.50314 2479 ft 7 kts 225°
2026-05-06 02:12 -25.00132 -53.50332 2479 ft 1 kts 225°
2026-05-06 02:12 -25.00134 -53.50333 2479 ft 0 kts 225°